Location: La Brionne
(46.1728°N, 1.7849°E)
Time: 07:04:15
(UTC+00:00)

Cosmos 1455 - Pass Details

Date: 16 June 2021
Orbit: 496 x 521 km, 82.5° (Epoch: 02 August)

Event Time Altitude Azimuth Distance (km) Brightness Sun altitude
Rises 23:31:23 0° 344° (NNW) 2,650 7.3 -20.3°
Reaches altitude 10° 23:33:36 10° 338° (NNW) 1,754 6.0 -20.3°
Maximum altitude 23:37:15 43° 267° (W) 737 2.9 -20.3°
Enters shadow 23:37:43 40° 246° (WSW) 763 2.8 -20.4°
